| time (UTC) | temp C | wind direction | speed KPH | gust KPH | rain 1hr cm | rain 24hr cm | rain mn cm | humidity % | barometer mb |
| 20260507073015 | 18 | 360 | 0.0 | 0.0 | 0.00 | 0.00 | 0.03 | 61 | 1012.7 |
| 20260507071511 | 17 | 360 | 0.0 | 0.0 | 0.00 | 0.00 | 0.03 | 61 | 1012.7 |
| 20260507070012 | 17 | 360 | 1.6 | 0.0 | 0.00 | 0.00 | 0.03 | 60 | 1012.6 |
| 20260507064505 | 17 | 360 | 0.0 | 0.0 | 0.00 | 0.00 | 0.03 | 61 | 1012.5 |
| 20260507063106 | 17 | 360 | 0.0 | 0.0 | 0.00 | 0.00 | 0.03 | 61 | 1012.3 |
| 20260507061556 | 16 | 360 | 0.0 | 0.0 | 0.00 | 0.00 | 0.03 | 69 | 1012.3 |
| 20260507060052 | 15 | 360 | 0.0 | 0.0 | 0.00 | 0.00 | 0.03 | 74 | 1012.2 |
| 20260507054548 | 13 | 360 | 0.0 | 0.0 | 0.00 | 0.00 | 0.03 | 82 | 1012.0 |
| 20260507053043 | 12 | 360 | 0.0 | 0.0 | 0.00 | 0.00 | 0.03 | 90 | 1011.8 |
| 20260507051541 | 10 | 360 | 0.0 | 0.0 | 0.00 | 0.00 | 0.03 | 91 | 1011.6 |
| 20260507050038 | 10 | 360 | 0.0 | 0.0 | 0.00 | 0.00 | 0.03 | 91 | 1011.4 |
| 20260507044536 | 10 | 360 | 0.0 | 0.0 | 0.00 | 0.00 | 0.00 | 90 | 1011.2 |
| 20260507043034 | 10 | 360 | 0.0 | 0.0 | 0.00 | 0.00 | 0.00 | 90 | 1011.2 |
| 20260507041531 | 10 | 360 | 0.0 | 0.0 | 0.00 | 0.00 | 0.00 | 89 | 1011.1 |
| 20260507040030 | 10 | 360 | 0.0 | 0.0 | 0.00 | 0.00 | 0.00 | 89 | 1010.8 |
| 20260507034529 | 10 | 360 | 0.0 | 0.0 | 0.00 | 0.00 | 0.00 | 88 | 1010.8 |
| 20260507033030 | 10 | 360 | 0.0 | 0.0 | 0.00 | 0.00 | 0.00 | 87 | 1010.6 |
| 20260507031526 | 10 | 360 | 0.0 | 0.0 | 0.00 | 0.00 | 0.00 | 86 | 1010.6 |
| 20260507030025 | 10 | 360 | 0.0 | 0.0 | 0.00 | 0.00 | 0.00 | 86 | 1010.6 |
| 20260507024523 | 10 | 360 | 0.0 | 0.0 | 0.00 | 0.00 | 0.00 | 85 | 1010.6 |
| 20260507023021 | 10 | 360 | 0.0 | 0.0 | 0.00 | 0.00 | 0.00 | 84 | 1010.5 |
| 20260507021520 | 11 | 360 | 0.0 | 0.0 | 0.00 | 0.00 | 0.00 | 83 | 1010.7 |
| 20260507020018 | 11 | 360 | 0.0 | 0.0 | 0.00 | 0.00 | 0.00 | 83 | 1010.6 |
| 20260507014526 | 11 | 360 | 0.0 | 0.0 | 0.00 | 0.00 | 0.00 | 83 | 1010.5 |
| 20260507013030 | 11 | 360 | 0.0 | 0.0 | 0.00 | 0.00 | 0.00 | 82 | 1010.4 |
| 20260507011514 | 12 | 360 | 0.0 | 0.0 | 0.00 | 0.00 | 0.00 | 81 | 1010.4 |
| 20260507010016 | 12 | 360 | 0.0 | 0.0 | 0.00 | 0.00 | 0.00 | 80 | 1010.2 |
| 20260507004509 | 12 | 360 | 0.0 | 0.0 | 0.00 | 0.00 | 0.00 | 80 | 1010.3 |
| 20260507003008 | 12 | 360 | 0.0 | 0.0 | 0.00 | 0.00 | 0.00 | 78 | 1010.3 |
| 20260507001510 | 12 | 360 | 0.0 | 0.0 | 0.00 | 0.00 | 0.00 | 78 | 1010.4 |
| 20260507000007 | 12 | 360 | 0.0 | 0.0 | 0.00 | 0.00 | 0.00 | 77 | 1010.4 |
| 20260506234506 | 12 | 360 | 0.0 | 0.0 | 0.00 | 0.00 | 0.00 | 77 | 1010.4 |
| 20260506233008 | 12 | 360 | 0.0 | 0.0 | 0.00 | 0.00 | 0.00 | 77 | 1010.4 |
| 20260506231504 | 12 | 360 | 0.0 | 0.0 | 0.00 | 0.00 | 0.00 | 76 | 1010.4 |
| 20260506230003 | 12 | 360 | 0.0 | 0.0 | 0.00 | 0.00 | 0.00 | 76 | 1010.4 |
| 20260506224502 | 13 | 360 | 0.0 | 0.0 | 0.00 | 0.00 | 0.00 | 76 | 1010.4 |
| 20260506223101 | 13 | 360 | 0.0 | 0.0 | 0.00 | 0.00 | 0.00 | 77 | 1010.4 |
| 20260506221611 | 13 | 360 | 0.0 | 0.0 | 0.00 | 0.00 | 0.00 | 76 | 1010.5 |
| 20260506220056 | 13 | 360 | 0.0 | 0.0 | 0.00 | 0.00 | 0.00 | 74 | 1010.5 |
| 20260506214557 | 14 | 360 | 0.0 | 0.0 | 0.00 | 0.00 | 1.24 | 73 | 1010.4 |
| 20260506213112 | 14 | 360 | 1.6 | 0.0 | 0.00 | 0.00 | 1.24 | 72 | 1010.3 |
| 20260506211553 | 14 | 360 | 0.0 | 0.0 | 0.00 | 0.00 | 1.24 | 72 | 1010.0 |
| 20260506210054 | 15 | 360 | 1.6 | 0.0 | 0.00 | 0.00 | 1.24 | 72 | 1009.8 |
| 20260506204553 | 15 | 360 | 0.0 | 0.0 | 0.00 | 0.00 | 1.24 | 72 | 1009.8 |
| 20260506203053 | 15 | 360 | 0.0 | 0.0 | 0.00 | 0.00 | 1.24 | 72 | 1009.6 |
| 20260506201553 | 15 | 360 | 1.6 | 0.0 | 0.00 | 0.00 | 1.24 | 72 | 1009.7 |
| 20260506200052 | 16 | 360 | 1.6 | 0.0 | 0.00 | 0.00 | 1.24 | 74 | 1009.5 |
| 20260506194551 | 16 | 360 | 1.6 | 0.0 | 0.00 | 0.00 | 1.24 | 75 | 1009.1 |
| 20260506193050 | 16 | 360 | 1.6 | 0.0 | 0.00 | 0.00 | 1.24 | 75 | 1009.1 |
| 20260506191550 | 16 | 360 | 0.0 | 0.0 | 0.00 | 0.00 | 1.24 | 75 | 1008.8 |
| 20260506190051 | 16 | 360 | 1.6 | 0.0 | 0.00 | 0.00 | 1.22 | 75 | 1008.7 |
| 20260506184552 | 16 | 360 | 1.6 | 0.0 | 0.00 | 0.00 | 1.22 | 77 | 1008.3 |
| 20260506183056 | 16 | 360 | 0.0 | 0.0 | 0.00 | 0.00 | 1.22 | 77 | 1008.4 |
| 20260506181612 | 17 | 360 | 0.0 | 0.0 | 0.00 | 0.00 | 1.22 | 76 | 1008.3 |
| 20260506180048 | 17 | 360 | 1.6 | 0.0 | 0.00 | 0.00 | 1.22 | 75 | 1008.1 |
| 20260506174547 | 17 | 360 | 1.6 | 0.0 | 0.00 | 0.00 | 1.22 | 76 | 1007.9 |
| 20260506173056 | 17 | 360 | 1.6 | 0.0 | 0.00 | 0.00 | 1.22 | 76 | 1007.8 |
| 20260506171547 | 17 | 360 | 1.6 | 0.0 | 0.00 | 0.00 | 1.22 | 76 | 1007.7 |
| 20260506170049 | 18 | 360 | 1.6 | 0.0 | 0.00 | 0.00 | 1.22 | 76 | 1007.6 |
| 20260506164548 | 18 | 360 | 1.6 | 0.0 | 0.00 | 0.00 | 1.22 | 76 | 1007.6 |
| 20260506163046 | 18 | 360 | 0.0 | 0.0 | 0.00 | 0.00 | 1.22 | 76 | 1007.6 |
| 20260506161547 | 18 | 360 | 1.6 | 0.0 | 0.00 | 0.00 | 1.22 | 76 | 1007.7 |
| 20260506160052 | 18 | 360 | 1.6 | 0.0 | 0.00 | 0.00 | 1.22 | 75 | 1007.7 |
| 20260506154544 | 18 | 360 | 1.6 | 0.0 | 0.00 | 0.00 | 1.19 | 74 | 1007.7 |
| 20260506153105 | 18 | 360 | 1.6 | 0.0 | 0.00 | 0.00 | 1.19 | 75 | 1007.7 |
| 20260506151545 | 18 | 360 | 1.6 | 0.0 | 0.00 | 0.00 | 1.19 | 74 | 1007.6 |
| 20260506150049 | 18 | 360 | 1.6 | 0.0 | 0.00 | 0.00 | 1.19 | 75 | 1007.6 |
| 20260506144544 | 18 | 360 | 1.6 | 0.0 | 0.00 | 0.00 | 1.19 | 75 | 1007.7 |
| 20260506143040 | 18 | 360 | 1.6 | 0.0 | 0.00 | 0.00 | 1.17 | 78 | 1007.7 |
| 20260506141538 | 18 | 360 | 1.6 | 0.0 | 0.00 | 0.00 | 1.17 | 79 | 1007.8 |
| 20260506140038 | 18 | 360 | 0.0 | 0.0 | 0.00 | 0.00 | 1.17 | 81 | 1007.9 |
| 20260506134537 | 18 | 360 | 1.6 | 0.0 | 0.00 | 0.00 | 1.14 | 80 | 1008.2 |
| 20260506133035 | 18 | 360 | 1.6 | 0.0 | 0.00 | 0.00 | 1.14 | 83 | 1008.2 |
| 20260506131539 | 17 | 360 | 1.6 | 0.0 | 0.00 | 0.00 | 1.12 | 84 | 1008.4 |
| 20260506130034 | 17 | 360 | 0.0 | 0.0 | 0.00 | 0.00 | 1.12 | 86 | 1008.5 |
| 20260506124534 | 17 | 360 | 0.0 | 0.0 | 0.00 | 0.00 | 1.09 | 87 | 1008.6 |
| 20260506123033 | 17 | 360 | 0.0 | 0.0 | 0.00 | 0.00 | 1.07 | 83 | 1008.8 |
| 20260506121533 | 18 | 360 | 1.6 | 0.0 | 0.00 | 0.00 | 1.04 | 78 | 1008.7 |
| 20260506120035 | 19 | 360 | 1.6 | 0.0 | 0.00 | 0.00 | 1.04 | 75 | 1008.4 |
| 20260506114531 | 19 | 360 | 1.6 | 0.0 | 0.00 | 0.00 | 1.04 | 74 | 1008.6 |
| 20260506113038 | 19 | 360 | 1.6 | 0.0 | 0.00 | 0.00 | 1.04 | 76 | 1008.6 |
| 20260506111529 | 19 | 360 | 1.6 | 0.0 | 0.00 | 0.00 | 1.04 | 76 | 1008.8 |
| 20260506110025 | 19 | 360 | 3.2 | 0.0 | 0.00 | 0.00 | 1.04 | 81 | 1008.9 |
| 20260506104524 | 18 | 360 | 4.8 | 0.0 | 0.00 | 0.00 | 1.04 | 82 | 1009.0 |
| 20260506103017 | 17 | 360 | 3.2 | 0.0 | 0.00 | 0.00 | 1.04 | 88 | 1009.4 |
| 20260506101513 | 17 | 360 | 3.2 | 0.0 | 0.00 | 0.00 | 1.04 | 89 | 1009.3 |
| 20260506100011 | 16 | 360 | 3.2 | 0.0 | 0.00 | 0.00 | 1.04 | 90 | 1009.3 |
| 20260506094508 | 16 | 360 | 3.2 | 0.0 | 0.00 | 0.00 | 1.02 | 91 | 1009.3 |
| 20260506093005 | 15 | 360 | 3.2 | 0.0 | 0.00 | 0.00 | 1.02 | 90 | 1009.3 |
| 20260506091505 | 15 | 360 | 4.8 | 0.0 | 0.00 | 0.00 | 0.99 | 90 | 1009.4 |
| 20260506090002 | 15 | 360 | 4.8 | 0.0 | 0.00 | 0.00 | 0.99 | 91 | 1009.5 |
| 20260506084501 | 15 | 360 | 1.6 | 0.0 | 0.00 | 0.00 | 0.99 | 91 | 1009.7 |
| 20260506083100 | 14 | 360 | 1.6 | 0.0 | 0.00 | 0.00 | 0.97 | 91 | 1009.9 |
| 20260506081603 | 14 | 360 | 1.6 | 0.0 | 0.00 | 0.00 | 0.97 | 92 | 1009.5 |
| 20260506080106 | 14 | 360 | 3.2 | 0.0 | 0.00 | 0.00 | 0.94 | 92 | 1009.3 |